Flag for U.S.A. Weather past 2 weeks in Eau Claire, Wisconsin, U.S.A.

Now
58 °F

Clear.


Feels Like: 57 °F
Forecast: 55 / 80 °F
Wind: 6 mph from Southwest

Location: Eau Claire County Airport

Current Time: May 3, 2015 at 6:59:37 AM

Latest Report: May 3, 2015 at 5:56 AM


Visibility: 10 mi

Pressure: 29.78 "Hg

Humidity: 70%

Dew point: 48 °F

Location of Eau ClaireLocation

Historic Weather in Eau Claire — Graph

°F

Eau Claire temperature yesterday

Maximum temperature yesterday: 79 °F (at 2:56 PM)
Minimum temperature yesterday: 46 °F (at 4:56 AM)
Average temperature yesterday: 65 °F

Past Weeks' High & Low Weather Summary

 TemperatureHumidityPressure
High79 °F (May 2, 2:56 PM)93% (Apr 19, 6:56 PM)30.23 "Hg (Apr 19, 6:56 PM)
Low26 °F (Apr 24, 4:56 AM)19% (Apr 23, 4:56 PM)29.39 "Hg (Apr 20, 6:56 AM)
Average49 °F51%29.91 "Hg
* Reported Apr 18 5:56 AM — May 3 5:56 AM, Eau Claire, Weather by CustomWeather, © 2015

Note: Actual official high and low records may vary slightly from our data, if they occured in-between our weather recording intervals... More about our weather records

Advertising

Eau Claire weather history for previous 24 hours

 ConditionsComfort  
Time TempWeatherWind HumidityBarometerVisibility
5:56 AM
Sun, May 3
58 °FClear.6 mph70%29.78 "Hg10 mi
4:56 AM59 °FClear.8 mph67%29.78 "Hg10 mi
3:56 AM60 °FClear.10 mph65%29.78 "Hg10 mi
2:56 AM61 °FClear.14 mph62%29.79 "Hg10 mi
1:56 AM61 °FClear.9 mph65%29.81 "Hg10 mi
12:56 AM64 °FClear.12 mph58%29.81 "Hg10 mi
11:56 PM
Sat, May 2
66 °FClear.13 mph54%29.80 "Hg10 mi
10:56 PM68 °FClear.14 mph49%29.80 "Hg10 mi
9:56 PM71 °FClear.14 mph44%29.79 "Hg10 mi
8:56 PM71 °FScattered clouds.9 mph41%29.77 "Hg10 mi
7:56 PM74 °FPartly sunny.10 mph36%29.76 "Hg10 mi
6:56 PM76 °FSunny.13 mph31%29.78 "Hg10 mi
5:56 PM79 °FPassing clouds.13 mph26%29.79 "Hg10 mi
4:56 PM79 °FPassing clouds.14 mph27%29.80 "Hg10 mi
3:56 PM79 °FPassing clouds.15 mph26%29.81 "Hg10 mi
2:56 PM79 °FScattered clouds.14 mph28%29.83 "Hg10 mi
1:56 PM77 °FSunny.10 mph32%29.86 "Hg10 mi
12:56 PM75 °FSunny.13 mph34%29.89 "Hg10 mi
11:56 AM73 °FPassing clouds.10 mph37%29.91 "Hg10 mi
10:56 AM69 °FSunny.8 mph41%29.93 "Hg10 mi
9:56 AM65 °FSunny.8 mph47%29.94 "Hg10 mi
8:56 AM61 °FSunny.7 mph52%29.96 "Hg10 mi
7:56 AM56 °FSunny.5 mph62%29.97 "Hg10 mi
6:56 AM48 °FSunny.No wind77%29.97 "Hg10 mi
Weather by CustomWeather, © 2015

See weather overviewHow to use our weather pages